Simultaneous Nadir Overpasses (SNOs) Predictions

Prediction of SNOs between METOP-A and TERRA Satellite Orbit:

Table of predicted SNOs for the next 14.0 days since TLE Epoch: 2/15/2020
Index Date (METOP-A) Time (METOP-A) Lat,Lon (METOP-A) SZA (METOP-A ) Date (TERRA) Time (TERRA) Lat,Lon (TERRA) SZA (TERRA ) Distance(km) Time Diff (sec)
1 02/15/2020 13:53:21 -81.44,-158.81 83.32 02/15/2020 13:53:44 -81.43,-158.82 83.31 0.59 23
2 02/15/2020 14:44:00 81.43, 8.91 96.71 02/15/2020 14:43:09 81.44, 8.96 96.70 1.32 51
3 02/18/2020 09:27:43 -81.44, -92.32 84.28 02/18/2020 09:28:02 -81.43, -92.51 84.29 3.24 19
4 02/18/2020 10:18:23 81.43, 75.38 95.75 02/18/2020 10:17:28 81.43, 75.24 95.71 2.44 55
5 02/21/2020 05:02:06 -81.43, -25.85 85.26 02/21/2020 05:02:20 -81.44, -25.84 85.25 0.72 14
6 02/21/2020 05:52:47 81.43, 141.45 94.73 02/21/2020 05:51:47 81.43, 141.49 94.70 1.16 60
7 02/24/2020 00:36:30 -81.44, 40.23 86.30 02/24/2020 00:36:39 -81.43, 40.40 86.28 3.01 9
8 02/24/2020 01:27:10 81.43,-152.09 93.72 02/24/2020 01:26:05 81.43,-151.91 93.71 3.13 65
9 02/26/2020 20:10:51 -81.43, 107.09 87.29 02/26/2020 20:10:56 -81.44, 107.01 87.29 1.77 5




NCC Satellite Simultaneous Nadir Overpasses (SNOs) Prediction Service
